Lid_Strength_Index
2 2 2 2 2 2 2 2 2 2 2 2 2 2 1 1 0 1 3 3 5 9 10 9 9 10 11 12 15 16 14 15 16 16 18 19 24 20 20 17 16 17 17 18 21 20 21 17 17 18 16 16 16 16
2 2 2 2 2 2 2 2 2 2 1 2 2 1 1 1 1 1 4 2 2 7 8 7 8 8 8 8 10 12 13 14 12 15 19 21 23 24 24 21 17 16 16 18 17 17 16 16 16 14 14 14 15 15
3 3 3 3 3 2 2 2 2 2 2 1 1 1 1 1 1 2 4 3 4 8 9 8 9 6 7 7 6 11 13 11 11 11 16 18 20 19 23 23 21 17 16 16 15 17 16 15 15 14 13 13 14 14
3 3 3 3 3 3 2 2 2 2 2 1 1 1 1 1 1 1 4 3 4 7 13 13 8 8 7 6 7 7 9 9 10 12 15 18 20 15 19 17 17 16 15 18 18 16 14 14 14 14 14 14 14 14
3 3 3 3 3 2 2 2 2 2 2 1 1 1 1 1 1 1 2 3 3 8 12 15 11 9 8 7 7 8 8 10 14 14 17 16 16 17 21 18 21 16 17 16 16 13 12 11 11 11 13 13 13 13
3 3 2 2 2 2 2 2 1 1 1 1 1 1 1 1 0 3 8 4 3 5 10 16 10 12 10 8 8 8 8 11 12 14 16 14 11 13 20 22 15 14 14 12 13 11 11 11 10 11 12 12 12 12
3 3 2 2 2 2 1 1 1 1 1 1 1 1 0 0 2 6 8 6 2 5 9 13 17 12 9 9 9 9 8 9 10 14 16 13 13 11 15 22 14 13 12 12 11 11 13 12 11 11 11 12 14 16
2 2 2 2 1 1 -0 -1 -1 -1 -1 -0 0 0 0 -0 -0 3 3 1 1 6 10 12 13 12 9 11 11 8 9 10 9 10 15 14 13 15 17 13 12 12 12 12 12 12 11 12 13 13 15 16 17 17
2 1 1 1 -0 -1 -1 -1 -1 -1 -1 -1 -1 -1 2 2 4 4 -0 -1 2 7 11 11 15 15 11 11 9 8 9 11 8 10 13 11 13 14 13 12 13 14 13 12 15 16 16 14 13 15 16 18 17 18
2 1 1 0 -1 -1 -1 -1 -1 -1 -1 -1 1 4 6 4 -0 -0 3 5 6 6 9 12 21 16 9 12 10 12 11 10 13 11 11 11 12 10 11 14 12 13 12 14 17 18 20 19 16 17 17 17 17 18
2 2 1 0 -0 -1 -1 -0 -0 -1 -0 3 5 6 4 -1 4 7 9 10 9 10 9 16 16 17 11 11 11 10 14 13 14 14 12 13 14 11 10 15 14 12 13 13 10 10 12 12 14 17 21 20 21 23
2 2 1 0 0 0 -0 0 -0 1 2 3 3 3 4 7 8 11 12 11 13 16 16 14 12 13 13 13 13 10 12 13 14 11 13 18 13 12 13 13 14 14 14 13 14 13 15 17 16 16 20 23 25 27
2 2 2 1 1 1 0 1 1 0 0 3 6 8 10 11 13 14 16 16 18 20 15 14 16 11 9 11 13 13 14 14 13 13 17 16 16 14 13 16 16 16 14 17 22 22 22 24 25 23 25 27 28 29
2 2 2 2 2 1 1 2 2 3 4 9 12 14 15 16 19 16 17 17 15 15 16 16 13 12 12 12 11 13 13 17 17 17 17 18 16 13 19 19 19 19 18 17 20 23 24 25 27 27 27 28 29 30
3 3 3 4 3 2 3 4 5 10 10 11 13 17 20 21 28 32 34 24 22 23 13 16 14 11 12 17 13 14 16 18 16 15 16 18 26 27 24 25 21 22 22 24 25 25 26 28 28 32 33 32 31 32
3 5 7 4 3 4 5 10 13 13 18 18 21 21 26 23 28 29 31 24 23 18 15 14 16 16 17 17 18 19 18 19 18 19 23 30 30 32 32 31 30 28 28 28 27 27 28 28 29 32 37 35 35 33
5 13 6 4 5 7 8 15 17 19 24 26 30 36 31 30 27 30 29 24 20 17 17 17 17 16 15 18 21 16 16 17 16 25 29 33 34 32 35 35 34 31 28 28 28 28 31 32 32 32 32 38 37 39
15 10 5 4 11 14 20 20 19 21 27 27 30 30 32 31 31 29 29 24 20 20 17 14 14 17 20 21 21 17 18 35 37 36 33 31 32 35 35 35 34 32 31 29 29 33 33 31 30 31 33 37 38 41
10 7 6 7 12 21 21 23 22 24 30 30 28 25 28 29 26 26 27 25 23 20 19 17 15 17 17 29 34 37 38 36 34 31 32 34 31 34 34 34 33 31 31 31 30 30 31 33 34 33 33 35 34 38
8 8 8 10 14 20 23 24 23 21 25 26 27 27 25 24 25 26 26 24 21 21 19 20 29 36 35 34 34 33 29 28 30 30 28 31 31 31 31 33 31 31 32 32 33 34 35 34 37 37 36 36 34 36
14 13 12 19 22 24 27 27 26 27 24 24 24 23 23 22 25 27 28 25 26 31 29 33 34 31 30 31 31 32 30 29 27 28 29 30 28 31 32 29 30 33 30 30 30 32 32 32 36 40 38 39 40 39
19 13 22 19 21 25 26 27 27 25 26 27 25 25 25 25 26 27 26 30 33 34 34 34 33 34 32 32 33 33 32 31 29 27 28 27 29 29 28 32 28 29 29 30 30 31 34 36 38 38 34 36 38 38
18 18 23 25 24 26 30 27 28 30 25 27 25 23 26 27 27 25 31 33 33 33 34 34 34 34 34 32 31 31 32 30 30 30 29 30 30 29 29 30 28 29 30 32 33 31 32 33 33 34 37 37 37 37
22 31 31 32 29 33 34 31 29 30 29 30 27 26 28 30 30 26 31 34 34 32 32 33 33 31 31 30 32 33 35 34 31 32 33 29 30 32 31 32 32 32 32 32 33 33 34 37 34 36 37 39 40 38
26 36 34 37 34 33 34 34 34 32 36 39 34 32 33 36 26 28 30 31 31 32 32 32 32 32 31 31 31 32 35 35 31 30 33 33 34 33 33 34 34 34 37 35 36 38 41 41 39 38 38 39 38 38
38 42 39 46 38 34 38 36 40 40 43 38 40 41 44 37 32 33 30 31 31 31 31 32 32 31 32 34 34 34 34 38 37 32 33 36 35 36 37 36 36 35 40 41 39 40 41 39 40 39 38 38 35 38
36 40 42 43 43 41 39 41 42 40 43 41 44 41 38 33 35 35 33 30 30 31 31 32 33 33 32 34 36 37 40 43 41 38 41 43 41 41 38 37 37 35 40 40 40 39 37 37 38 37 37 38 38 36
42 44 39 42 43 48 45 46 44 43 44 43 46 39 36 35 33 35 35 35 39 35 33 35 38 39 40 39 40 39 38 39 37 39 42 42 44 42 42 42 39 27 37 37 36 37 38 36 36 36 37 34 34 36
42 47 45 41 43 41 44 43 43 44 41 47 41 39 38 39 41 43 40 42 48 43 42 43 41 46 43 42 43 43 44 40 36 37 38 38 37 34 40 40 39 37 37 36 28 29 33 33 33 34 33 34 33 35
42 49 42 45 39 39 41 44 45 48 50 46 47 41 40 40 41 46 46 46 42 41 44 46 49 45 43 42 41 38 44 43 39 37 37 37 36 37 40 39 38 38 37 39 34 34 28 30 31 33 35 36 37 37
48 50 44 44 40 44 48 54 56 54 53 52 56 47 44 44 40 44 45 46 48 49 43 41 42 49 44 43 43 40 34 39 41 39 39 39 38 39 38 37 36 39 39 38 37 37 36 36 37 37 37 37 37 36
46 48 41 37 39 46 52 51 51 48 50 47 45 53 44 43 39 36 39 45 44 43 38 42 43 37 39 39 41 41 34 37 38 35 36 34 35 34 34 34 35 37 36 33 34 33 33 34 35 36 36 37 37 37
49 51 50 44 39 39 44 45 42 40 43 43 42 47 48 43 35 33 36 38 34 34 34 35 35 36 36 36 35 35 32 33 31 26 24 25 27 27 30 31 32 33 34 34 34 34 35 37 37 37 37 37 36 35